Flag for Australia Weather past 2 weeks in Hobart, Tasmania, Australia

Now
37 °F

Passing clouds.


Feels Like: 34 °F
Forecast: 38 / 54 °F
Wind: 5 mph from West

Location: Hobart Airport

Current Time: May 23, 2015 at 8:44:31 AM

Latest Report: May 23, 2015 at 8:00 AM


Visibility: N/A

Pressure: 30.36 "Hg

Humidity: 87%

Dew point: 34 °F

Location of HobartLocation

Historic Weather in Hobart — Graph

°F

Hobart temperature yesterday

Maximum temperature yesterday: 57 °F (at 1:00 PM)
Minimum temperature yesterday: 36 °F (at 11:00 PM)
Average temperature yesterday: 48 °F

Past Weeks' High & Low Weather Summary

 TemperatureHumidityPressure
High63 °F (May 19, 1:00 PM)100% (May 20, 6:00 AM)30.57 "Hg (May 20, 6:00 AM)
Low32 °F (May 23, 4:30 AM)36% (May 17, 11:00 AM)29.15 "Hg (May 12, 9:30 AM)
Average50 °F67%29.94 "Hg
* Reported May 8 7:00 AM — May 23 7:00 AM, Hobart, Weather by CustomWeather, © 2015

Note: Actual official high and low records may vary slightly from our data, if they occured in-between our weather recording intervals... More about our weather records

Advertising

Hobart weather history for previous 24 hours

 ConditionsComfort  
Time TempWeatherWind HumidityBarometerVisibility
7:00 AM
Sat, May 23
34 °FPassing clouds.6 mph87%30.36 "HgN/A
6:30 AM34 °FPassing clouds.No wind93%30.33 "HgN/A
6:00 AM34 °FPassing clouds.3 mph87%30.33 "HgN/A
5:30 AM39 °FClear.6 mph81%30.33 "HgN/A
5:00 AM34 °FPassing clouds.No wind87%30.33 "HgN/A
4:30 AM32 °FPassing clouds.No wind93%30.33 "HgN/A
4:00 AM36 °FPassing clouds.5 mph87%30.33 "HgN/A
3:30 AM34 °FPassing clouds.5 mph93%30.33 "HgN/A
3:00 AM41 °FPassing clouds.5 mph76%30.33 "HgN/A
2:30 AM36 °FChilly.5 mph87%30.33 "HgN/A
2:00 AM36 °FPassing clouds.7 mph87%30.33 "HgN/A
1:30 AM36 °FChilly.2 mph87%30.33 "HgN/A
1:00 AM34 °FPassing clouds.1 mph93%30.33 "HgN/A
12:30 AM37 °FPassing clouds.No wind81%30.33 "HgN/A
12:00 AM36 °FPassing clouds.1 mph87%30.33 "HgN/A
11:30 PM
Fri, May 22
37 °FPassing clouds.No wind87%30.33 "HgN/A
11:00 PM36 °FPassing clouds.1 mph93%30.33 "HgN/A
10:30 PM39 °FPassing clouds.1 mph81%30.33 "HgN/A
10:00 PM41 °FPassing clouds.6 mph81%30.33 "HgN/A
9:30 PM39 °FPassing clouds.No wind87%30.33 "HgN/A
9:00 PM45 °FPassing clouds.7 mph76%30.33 "HgN/A
8:30 PM46 °FPassing clouds.3 mph66%30.33 "HgN/A
8:00 PM43 °FPassing clouds.6 mph76%30.33 "HgN/A
7:30 PM48 °FPassing clouds.7 mph62%30.33 "HgN/A
7:00 PM45 °FPassing clouds.2 mph71%30.33 "HgN/A
6:30 PM45 °FPassing clouds.No wind76%30.30 "HgN/A
6:00 PM46 °FPassing clouds.6 mph71%30.30 "HgN/A
5:30 PM50 °FPassing clouds.9 mph62%30.30 "HgN/A
5:00 PM52 °FPassing clouds.9 mph54%30.30 "HgN/A
4:30 PM54 °FPassing clouds.8 mph51%30.30 "HgN/A
4:00 PM55 °FPassing clouds.10 mph47%30.30 "HgN/A
3:30 PM55 °FPassing clouds.12 mph47%30.27 "HgN/A
3:00 PM57 °FPassing clouds.13 mph44%30.27 "HgN/A
2:30 PM57 °FPassing clouds.10 mph44%30.27 "HgN/A
2:00 PM57 °FPassing clouds.14 mph44%30.27 "HgN/A
1:30 PM57 °FPassing clouds.12 mph48%30.27 "HgN/A
1:00 PM57 °FPassing clouds.12 mph44%30.30 "HgN/A
12:30 PM55 °FPassing clouds.10 mph47%30.30 "HgN/A
12:00 PM55 °FPassing clouds.12 mph47%30.33 "HgN/A
11:30 AM54 °FPassing clouds.9 mph47%30.33 "HgN/A
11:00 AM54 °FPassing clouds.9 mph47%30.33 "HgN/A
10:30 AM54 °FPassing clouds.7 mph51%30.36 "HgN/A
10:00 AM50 °FPassing clouds.7 mph58%30.36 "HgN/A
9:30 AM48 °FPassing clouds.5 mph66%30.36 "HgN/A
9:00 AM46 °FPassing clouds.6 mph71%30.36 "HgN/A
8:30 AM43 °FScattered clouds.7 mph81%30.36 "HgN/A
8:00 AM45 °FPartly sunny.6 mph71%30.36 "HgN/A
Weather by CustomWeather, © 2015

See weather overviewHow to use our weather pages